Regional Weather Roundup
Issued by NWS Grand Forks, ND

Home | Current Version | Previous Version | Text Only | Print | Product List | Glossary On
Versions: 1 2 3 4 5 6 7 8 9 10 11 12 13 14 15 16 17 18 19 20 21 22 23 24 25 26 27 28 29 30 31 32 33 34 35 36 37 38 39 40 41 42 43 44 45 46 47 48 49 50
000
ASUS43 KFGF 260331
RWRFGF
PRAIRIE TO PINES  WEATHER ROUNDUP
NATIONAL WEATHER SERVICE EASTERN NORTH DAKOTA/GRAND FORKS ND
1000 PM CDT WED MAY 25 2016

 **SATELLITE DATA USED TO AUGMENT SKY COVER AT AUTOMATED STATIONS**
 *****  WEATHER ACROSS EASTERN NORTH DAKOTA  *****

CITY           SKY/WX    TMP DP  RH WIND       PRES   REMARKS
GRAND FORKS    CLOUDY    59  57  93 W10       29.69R
GRAND FRKS AFB CLOUDY    57  57 100 NW7       29.69R
GRAND FRKS NWS   N/A     57 N/A N/A W9          N/A
DEVILS LAKE    CLOUDY    57  55  94 NE3       29.75F
FARGO          CLOUDY    60  56  86 SW6       29.73S
WAHPETON ARPT  CLOUDY    63  57  82 E6        29.74S
$$

 ***** WEATHER ACROSS CENTRAL AND WESTERN NORTH DAKOTA  *****

CITY           SKY/WX    TMP DP  RH WIND       PRES   REMARKS
BISMARCK       CLOUDY    59  52  77 NW7       29.79R
MINOT          CLOUDY    59  55  87 S5        29.75S
JAMESTOWN      RAIN      59  57  93 S8        29.75S
MINOT AFB      MOCLDY    58  55  89 S6        29.74S
GARRISON         N/A     57  52  83 NW14      29.77S
WILLISTON      CLEAR     49  46  90 N5        29.81F
DICKINSON      CLEAR     46  41  82 W5        29.81S
HETTINGER      CLEAR     47  40  76 NW5       29.85R
$$

 *****  OTHER AIRPORT OBSERVATIONS IN OUR AREA  *****

CITY           SKY/WX    TMP DP  RH WIND       PRES   REMARKS
WALHALLA       LGT RAIN  55  55 100 N13       29.72F
GRAFTON AIRPOR CLOUDY    59  59 100 NW14      29.68F
VALLEY CITY AR RAIN      55  55 100 SW20G28   29.76R
CANDO          CLOUDY    55  55 100 NE8       29.77F
CAVALIER APRT  LGT RAIN  57  57 100 N12       29.69F VSB 1
GWINNER        MOCLDY    55  54  94 N8        29.78R
SHEYENNE NWR     N/A     60  58  92 E2        29.95
ROLLA          CLOUDY    54  54 100 NE10      29.79R
 ***** THE ABOVE OBSERVATIONS ARE NON NWS ARE NOT QUALITY
       CONTROLLED AND MAY MIS-REPORT RAIN FOR SNOW...
$$

  *****  WEATHER ACROSS NORTHERN MINNESOTA  *****

CITY           SKY/WX    TMP DP  RH WIND       PRES   REMARKS
FLAG ISLAND    LGT RAIN  57  55  94 E17G24    29.77F
WARROAD        LGT RAIN  57  54  88 E17       29.73S
ROSEAU         CLOUDY    59  54  82 E16       29.70S
HALLOCK        CLOUDY    61  59  94 E7        29.65F
THF RVR FALLS  CLOUDY    61  55  82 S15G21    29.71R
BAUDETTE       LGT RAIN  59  56  89 E16       29.76S
WASKISH        CLOUDY    59  55  88 SE14G20   29.77R
CROOKSTON      CLOUDY    61  57  88 SW17      29.71R
STEPHEN NDAWN    N/A     61  59  94 SE2         N/A
GREENBUSH NDAW   N/A     61  59  94 SE10        N/A
$$
  *****  WEATHER ACROSS CENTRAL AND WEST MINNESOTA  *****

CITY           SKY/WX    TMP DP  RH WIND       PRES   REMARKS
FOSSTON        CLEAR     57  55  94 S8        29.75S
BEMIDJI        CLOUDY    59  55  88 SE14      29.78R
PARK RAPIDS    MOCLDY    61  58  90 SE10      29.78R
ELBOW LAKE     FAIR      65  61  88 E5        29.75F
WADENA         MOCLDY    61  57  88 E8        29.79S
DETROIT LAKES  PTCLDY    59  55  88 S6        29.78S
MOORHEAD       CLOUDY    63  59  88 S5        29.75R
FERGUS FALLS   CLOUDY    63  61  94 E3        29.73R
MORRIS MN      MOCLDY    66  57  72 S9        29.76F
STAPLES        PTCLDY    57  55  94 SE3       29.80R
$$
  *****  WEATHER ELSEWHERE ACROSS MINNESOTA  *****

CITY           SKY/WX    TMP DP  RH WIND       PRES   REMARKS
DULUTH         CLOUDY    47  46  97 E9        29.89R
INTRNTL FALLS  CLOUDY    59  53  80 E5        29.82R
ELY            CLOUDY    55  48  76 SE6G16    29.88R
CLOQUET        CLOUDY    46  45  93 E7        29.87F FOG
WHEATON        CLOUDY    68  63  83 E6        29.75S
BRAINERD       CLOUDY    57  54  89 SE7       29.83R
HIBBING        MOCLDY    52  50  93 SE10      29.86S
ALEXANDRIA     MOCLDY    65  57  75 CALM      29.79R
SAINT CLOUD    CLOUDY    62  60  93 E8        29.82R
MINNEAPOLIS    PTCLDY    70  62  76 E10       29.81R
$$

  *****  WEATHER ACROSS SOUTH DAKOTA  *****

CITY           SKY/WX    TMP DP  RH WIND       PRES   REMARKS
SIOUX FALLS    TSTM      70  61  73 NW18G24   29.82R
BROOKINGS      LGT RAIN  61  54  77 E5        29.83F
WATERTOWN      CLOUDY    65  55  70 S13       29.79F
HURON          PTCLDY    58  54  86 S9        29.79R
SISSETON         N/A     68  52  56 NW6       29.71F
ABERDEEN       PTCLDY    60  51  72 SW9       29.74R
MITCHELL       CLOUDY    67  61  81 N5        29.80R
PIERRE         CLEAR     59  49  69 NW9       29.80R
MOBRIDGE       CLEAR     58  49  72 NW7       29.78R
RAPID CITY     PTCLDY    50  48  93 NW6       29.90R
$$

  *****  SOME WEATHER IN NEARBY STATES *****

CITY           SKY/WX    TMP DP  RH WIND       PRES   REMARKS
GLASGOW MT     CLEAR     55  44  66 N9        29.82S
GREAT FALLS MT MOCLDY    55  45  68 NW12      29.91R
CHEYENNE WY    PTCLDY    54  35  48 N8        30.02R
SCOTTSBLUFF NE MOCLDY    61  44  53 NE12      29.93R
OMAHA NE       CLOUDY    71  66  84 SE7       29.83R
DES MOINES IA  CLOUDY    76  64  66 SE6       29.85S
DAVENPORT IA   CLEAR     71  58  63 S5        29.91R
CHICAGO IL     CLOUDY    67  65  93 NE8       29.94S
EAU CLAIRE WI  FOG       61  60  97 CALM      29.84S VSB 1/4
LA CROSSE WI   CLEAR     69  64  84 SE6       29.83S
$$

  *****  SOME NATIONAL WEATHER *****

CITY           SKY/WX    TMP DP  RH WIND       PRES   REMARKS
LA GUARDIA NY  PTCLDY    81  53  37 SW12      30.04S
RALEIGH NC     PTCLDY    69  58  67 CALM      30.17R
ATLANTA GA     PTCLDY    76  56  49 S6        30.20S
NEW ORLEANS LA MOCLDY    79  72  79 SE8       30.13R
OKLAHOMA CITY  PTCLDY    78  74  87 S16G22    29.87R
ALBUQUERQUE NM PTCLDY    74  14  10 SW12      29.96R
SALT LAKE CITY CLOUDY    61  44  53 N7        29.99R
LOS ANGELES CA PTCLDY    60  53  77 W9        30.07S
BOISE ID       CLEAR     68  37  32 W6        29.96S
SEATTLE WA     MOCLDY    58  47  66 W8        30.19R
$$

*** WEATHER ACROSS MANITOBA...SASKATCHEWAN AND ONTARIO ***
                ***ONTARIO***

CITY           SKY/WX    TMP DP  RH WIND       PRES   REMARKS
GERALDTON      CLOUDY    63  43  48 E7        30.03R
THUNDER BAY    CLOUDY    52  46  82 SE5       29.98
SIOUX LOOKOUT  CLOUDY    59  54  82 E6        29.90S
TORONTO        CLOUDY    72  57  60 N5        30.04S
BIG TROUT LK   CLEAR     57  48  72 SE6       29.97S
PICKLE LAKE    NOT AVBL
DRYDEN         CLOUDY    59  55  88 E7        29.88R
KENORA         LGT RAIN  59  57  94 SE10G23   29.87R FOG
$$
                *** MANITOBA***

CITY           SKY/WX    TMP DP  RH WIND       PRES   REMARKS
BRANDON        LGT RAIN  55  54  94 E12       29.80R
DAUPHIN        LGT RAIN  57  55  94 NE2       29.85R
ISLAND LAKE    NOT AVBL
PILOT MOUND      N/A     54  54 100 E12G18      N/A
THE PAS        PTCLDY    59  46  63 VRB2      29.87R
THOMPSON       PTCLDY    55  48  76 VRB2      29.87S
WINNIPEG       LGT RAIN  57  55  94 E13G23    29.79F
LYNN LAKE      MOCLDY    63  45  51 NW5       29.85R
CHURCHILL      LGT RAIN  36  34  93 SE15      29.96S
GILLAM         MOCLDY    61  46  59 SE5       29.90S
$$
                ***SASKATCHEWAN***

CITY           SKY/WX    TMP DP  RH WIND       PRES   REMARKS
ESTEVAN        LGT RAIN  55  54  94 NE12      29.78S FOG
KINDERSLEY     PTCLDY    57  45  62 E6        29.89R
LLOYDMINSTER   PTCLDY    61  46  59 S9        29.89R
PRINCE ALBERT  PTCLDY    57  46  67 CALM      29.87R
REGINA         LGT RAIN  54  52  94 N10       29.84F
YORKTON        LGT RAIN  55  54  94 W3        29.87S FOG
N. BATTLEFORD  CLEAR     55  46  71 NW2       29.91R
LA RONGE       PTCLDY    61  46  59 S3        29.87
SASKATOON      MOCLDY    61  48  63 N8        29.88R
SWIFT CURRENT  CLOUDY    52  48  87 E8        29.87R
$$
NOTE: THESE ARE AUTOMATED STATIONS WITH LIMITED QUALITY CONTROL
      "FAIR" INDICATES FEW OR NO CLOUDS BELOW 12,000 FEET WITH NO
      SIGNIFICANT WEATHER AND/OR OBSTRUCTIONS TO VISIBILITY.
      SKY/WX - SKY CONDITION AND SIGNIFICANT WEATHER.
      TMP - AIR TEMPERATURE.    DP   - DEWPOINT TEMPERATURE.
      RH  - RELATIVE HUMIDITY.  PRES - PRESSURE.
      HX  - HEAT INDEX.         WCI  - WIND CHILL INDEX.
$



USA.gov is the U.S. government's official web portal to all federal, state and local government web resources and services.